User: anonymous
Location: Caltech
(34.1382°N, 118.1253°W)
Time: 11:08:54
(UTC-07:00)
Language:

JAS-2 - Orbit

View from above orbital plane
View from above orbital plane
View from above satellite
View from above satellite

Ground track
Ground track

The orbit data is extracted from the following two-line orbital elements,

1 24278U 96046B   14264.05553706 -.00000003  00000-0  30421-4 0  4786
2 24278 098.5149 264.6843 0351106 049.0456 356.0765 13.53029545893636
Epoch (UTC): 21 September 2014 01:19:58
Eccentricity: 0.0351106
inclination: 98.5149°
perigee height: 800 km
apogee height: 1322 km
right ascension of ascending node: 264.6843°
argument of perigee: 49.0456°
revolutions per day: 13.53029545
mean anomaly at epoch: 356.0765°
orbit number at epoch: 89363

The dashed part of the orbit path shows where the satellite is in the earth's shadow,  

DLR